iso_date,Year,Hour,Min,DOY,POS_DOY,Lat,Lon,BP,Ts,Ta,has_bp,has_ts,has_ta,BuoyID,Buoy_Type,Buoy_Owner,Logistics,Hemisphere
2011-03-24T00:00:00Z,2011,0,0,83.0,83.0,75.62196,178.81614,1005.6,-999.0,-999.0,yes,no,no,300234010957630,UPTEMPO,PSC-UPTEMPO,Araon,North
2011-04-30T09:00:00Z,2011,9,0,120.375,120.375,75.90888,175.16772,988.6,-999.0,-999.0,yes,no,no,300234010957630,UPTEMPO,PSC-UPTEMPO,Araon,North
2011-08-23T00:00:00Z,2011,0,0,235.0,235.0,75.83634,-169.26066,998.6,-999.0,-999.0,yes,no,no,300234010957630,UPTEMPO,PSC-UPTEMPO,Araon,North
2011-08-23T01:00:28Z,2011,1,0,235.042,235.042,75.83634,-169.26066,998.7,-999.0,-999.0,yes,no,no,300234010957630,UPTEMPO,PSC-UPTEMPO,Araon,North
2011-08-23T01:59:31Z,2011,2,0,235.083,235.083,75.83634,-169.26066,998.8,-999.0,-999.0,yes,no,no,300234010957630,UPTEMPO,PSC-UPTEMPO,Araon,North
2011-08-23T03:00:00Z,2011,3,0,235.125,235.125,75.81258,-169.23204,998.8,-999.0,-999.0,yes,no,no,300234010957630,UPTEMPO,PSC-UPTEMPO,Araon,North
2011-08-23T04:00:28Z,2011,4,0,235.167,235.167,75.81258,-169.23204,998.9,-999.0,-999.0,yes,no,no,300234010957630,UPTEMPO,PSC-UPTEMPO,Araon,North
2011-08-23T04:59:31Z,2011,5,0,235.208,235.208,75.81258,-169.23204,999.2,-999.0,-999.0,yes,no,no,300234010957630,UPTEMPO,PSC-UPTEMPO,Araon,North
2011-08-23T06:00:00Z,2011,6,0,235.25,235.25,75.78594,-169.19514,999.5,-999.0,-999.0,yes,no,no,300234010957630,UPTEMPO,PSC-UPTEMPO,Araon,North
2011-08-23T07:00:28Z,2011,7,0,235.292,235.292,75.78594,-169.19514,999.8,-999.0,-999.0,yes,no,no,300234010957630,UPTEMPO,PSC-UPTEMPO,Araon,North
2011-08-23T07:59:31Z,2011,8,0,235.333,235.333,75.78594,-169.19514,1000.4,-999.0,-999.0,yes,no,no,300234010957630,UPTEMPO,PSC-UPTEMPO,Araon,North
2011-08-23T09:00:00Z,2011,9,0,235.375,235.375,75.7638,-169.17948,1000.8,-999.0,-999.0,yes,no,no,300234010957630,UPTEMPO,PSC-UPTEMPO,Araon,North
2011-08-23T10:00:28Z,2011,10,0,235.417,235.417,75.7638,-169.17948,1001.3,-999.0,-999.0,yes,no,no,300234010957630,UPTEMPO,PSC-UPTEMPO,Araon,North
2011-08-23T10:59:31Z,2011,11,0,235.458,235.458,75.7638,-169.17948,1001.7,-999.0,-999.0,yes,no,no,300234010957630,UPTEMPO,PSC-UPTEMPO,Araon,North
2011-08-23T12:00:00Z,2011,12,0,235.5,235.5,75.7557,-169.17858,1002.2,-999.0,-999.0,yes,no,no,300234010957630,UPTEMPO,PSC-UPTEMPO,Araon,North
2011-08-23T13:00:28Z,2011,13,0,235.542,235.542,75.7557,-169.17858,1002.7,-999.0,-999.0,yes,no,no,300234010957630,UPTEMPO,PSC-UPTEMPO,Araon,North
2011-08-23T13:59:31Z,2011,14,0,235.583,235.583,75.7557,-169.17858,1003.1,-999.0,-999.0,yes,no,no,300234010957630,UPTEMPO,PSC-UPTEMPO,Araon,North
2011-08-23T15:00:00Z,2011,15,0,235.625,235.625,75.74886,-169.16292,1003.6,-999.0,-999.0,yes,no,no,300234010957630,UPTEMPO,PSC-UPTEMPO,Araon,North
2011-08-23T16:00:28Z,2011,16,0,235.667,235.667,75.74886,-169.16292,1004.3,-999.0,-999.0,yes,no,no,300234010957630,UPTEMPO,PSC-UPTEMPO,Araon,North
2011-08-23T16:59:31Z,2011,17,0,235.708,235.708,75.74886,-169.16292,1004.9,-999.0,-999.0,yes,no,no,300234010957630,UPTEMPO,PSC-UPTEMPO,Araon,North
2011-08-23T18:00:00Z,2011,18,0,235.75,235.75,75.73698,-169.14798,1005.6,-999.0,-999.0,yes,no,no,300234010957630,UPTEMPO,PSC-UPTEMPO,Araon,North
2011-08-23T19:00:28Z,2011,19,0,235.792,235.792,75.73698,-169.14798,1006.0,-999.0,-999.0,yes,no,no,300234010957630,UPTEMPO,PSC-UPTEMPO,Araon,North
2011-08-23T19:59:31Z,2011,20,0,235.833,235.833,75.73698,-169.14798,1006.5,-999.0,-999.0,yes,no,no,300234010957630,UPTEMPO,PSC-UPTEMPO,Araon,North
2011-08-23T21:00:00Z,2011,21,0,235.875,235.875,75.73014,-169.16148,1007.2,-999.0,-999.0,yes,no,no,300234010957630,UPTEMPO,PSC-UPTEMPO,Araon,North
2011-08-23T22:00:28Z,2011,22,0,235.917,235.917,75.73014,-169.16148,1007.6,-999.0,-999.0,yes,no,no,300234010957630,UPTEMPO,PSC-UPTEMPO,Araon,North
2011-08-23T22:59:31Z,2011,23,0,235.958,235.958,75.73014,-169.16148,1008.3,-999.0,-999.0,yes,no,no,300234010957630,UPTEMPO,PSC-UPTEMPO,Araon,North
2011-08-24T00:00:00Z,2011,0,0,236.0,236.0,75.72258,-169.17282,1008.8,-999.0,-999.0,yes,no,no,300234010957630,UPTEMPO,PSC-UPTEMPO,Araon,North
2011-08-24T01:00:28Z,2011,1,0,236.042,236.042,75.72258,-169.17282,1009.2,-999.0,-999.0,yes,no,no,300234010957630,UPTEMPO,PSC-UPTEMPO,Araon,North
2011-08-24T01:59:31Z,2011,2,0,236.083,236.083,75.72258,-169.17282,1009.6,-999.0,-999.0,yes,no,no,300234010957630,UPTEMPO,PSC-UPTEMPO,Araon,North
2011-08-24T03:00:00Z,2011,3,0,236.125,236.125,75.72042,-169.19442,1010.1,-999.0,-999.0,yes,no,no,300234010957630,UPTEMPO,PSC-UPTEMPO,Araon,North
2011-08-24T04:00:28Z,2011,4,0,236.167,236.167,75.72042,-169.19442,1010.4,-999.0,-999.0,yes,no,no,300234010957630,UPTEMPO,PSC-UPTEMPO,Araon,North
2011-08-24T04:59:31Z,2011,5,0,236.208,236.208,75.72042,-169.19442,1010.6,-999.0,-999.0,yes,no,no,300234010957630,UPTEMPO,PSC-UPTEMPO,Araon,North
2011-08-24T06:00:00Z,2011,6,0,236.25,236.25,75.71772,-169.22718,1010.9,-999.0,-999.0,yes,no,no,300234010957630,UPTEMPO,PSC-UPTEMPO,Araon,North
2011-08-24T07:00:28Z,2011,7,0,236.292,236.292,75.71772,-169.22718,1011.4,-999.0,-999.0,yes,no,no,300234010957630,UPTEMPO,PSC-UPTEMPO,Araon,North
2011-08-24T07:59:31Z,2011,8,0,236.333,236.333,75.71772,-169.22718,1011.6,-999.0,-999.0,yes,no,no,300234010957630,UPTEMPO,PSC-UPTEMPO,Araon,North
2011-08-24T09:00:00Z,2011,9,0,236.375,236.375,75.7134,-169.26138,1012.1,-999.0,-999.0,yes,no,no,300234010957630,UPTEMPO,PSC-UPTEMPO,Araon,North
2011-08-24T10:00:28Z,2011,10,0,236.417,236.417,75.7134,-169.26138,1012.5,-999.0,-999.0,yes,no,no,300234010957630,UPTEMPO,PSC-UPTEMPO,Araon,North
2011-08-24T10:59:31Z,2011,11,0,236.458,236.458,75.7134,-169.26138,1012.7,-999.0,-999.0,yes,no,no,300234010957630,UPTEMPO,PSC-UPTEMPO,Araon,North
2011-08-24T12:00:00Z,2011,12,0,236.5,236.5,75.70656,-169.27776,1013.0,-999.0,-999.0,yes,no,no,300234010957630,UPTEMPO,PSC-UPTEMPO,Araon,North
2011-08-24T13:00:28Z,2011,13,0,236.542,236.542,75.70656,-169.27776,1013.0,-999.0,-999.0,yes,no,no,300234010957630,UPTEMPO,PSC-UPTEMPO,Araon,North
2011-08-24T13:59:31Z,2011,14,0,236.583,236.583,75.70656,-169.27776,1013.1,-999.0,-999.0,yes,no,no,300234010957630,UPTEMPO,PSC-UPTEMPO,Araon,North
2011-08-24T15:00:00Z,2011,15,0,236.625,236.625,75.69648,-169.29054,1013.4,-999.0,-999.0,yes,no,no,300234010957630,UPTEMPO,PSC-UPTEMPO,Araon,North
2011-08-24T16:00:28Z,2011,16,0,236.667,236.667,75.69648,-169.29054,1013.6,-999.0,-999.0,yes,no,no,300234010957630,UPTEMPO,PSC-UPTEMPO,Araon,North
2011-08-24T16:59:31Z,2011,17,0,236.708,236.708,75.69648,-169.29054,1013.6,-999.0,-999.0,yes,no,no,300234010957630,UPTEMPO,PSC-UPTEMPO,Araon,North
2011-08-24T18:00:00Z,2011,18,0,236.75,236.75,75.6837,-169.3071,1013.9,-999.0,-999.0,yes,no,no,300234010957630,UPTEMPO,PSC-UPTEMPO,Araon,North
2011-08-24T19:00:28Z,2011,19,0,236.792,236.792,75.6837,-169.3071,1014.0,-999.0,-999.0,yes,no,no,300234010957630,UPTEMPO,PSC-UPTEMPO,Araon,North
2011-08-24T19:59:31Z,2011,20,0,236.833,236.833,75.6837,-169.3071,1013.9,-999.0,-999.0,yes,no,no,300234010957630,UPTEMPO,PSC-UPTEMPO,Araon,North
2011-08-24T21:00:00Z,2011,21,0,236.875,236.875,75.67092,-169.32654,1014.1,-999.0,-999.0,yes,no,no,300234010957630,UPTEMPO,PSC-UPTEMPO,Araon,North
2011-08-24T22:00:28Z,2011,22,0,236.917,236.917,75.67092,-169.32654,1014.3,-999.0,-999.0,yes,no,no,300234010957630,UPTEMPO,PSC-UPTEMPO,Araon,North
2011-08-24T22:59:31Z,2011,23,0,236.958,236.958,75.67092,-169.32654,1014.5,-999.0,-999.0,yes,no,no,300234010957630,UPTEMPO,PSC-UPTEMPO,Araon,North
2011-08-25T00:00:00Z,2011,0,0,237.0,237.0,75.65526,-169.37802,1014.6,-999.0,-999.0,yes,no,no,300234010957630,UPTEMPO,PSC-UPTEMPO,Araon,North
2011-08-25T01:00:28Z,2011,1,0,237.042,237.042,75.65526,-169.37802,1014.6,-999.0,-999.0,yes,no,no,300234010957630,UPTEMPO,PSC-UPTEMPO,Araon,North
2011-08-25T01:59:31Z,2011,2,0,237.083,237.083,75.65526,-169.37802,1014.4,-999.0,-999.0,yes,no,no,300234010957630,UPTEMPO,PSC-UPTEMPO,Araon,North
2011-08-25T03:00:00Z,2011,3,0,237.125,237.125,75.63798,-169.42176,1014.5,-999.0,-999.0,yes,no,no,300234010957630,UPTEMPO,PSC-UPTEMPO,Araon,North
2011-08-25T04:00:28Z,2011,4,0,237.167,237.167,75.63798,-169.42176,1014.4,-999.0,-999.0,yes,no,no,300234010957630,UPTEMPO,PSC-UPTEMPO,Araon,North
2011-08-25T04:59:31Z,2011,5,0,237.208,237.208,75.63798,-169.42176,1014.6,-999.0,-999.0,yes,no,no,300234010957630,UPTEMPO,PSC-UPTEMPO,Araon,North
2011-08-25T06:00:00Z,2011,6,0,237.25,237.25,75.62484,-169.45722,1014.3,-999.0,-999.0,yes,no,no,300234010957630,UPTEMPO,PSC-UPTEMPO,Araon,North
2011-08-25T07:00:28Z,2011,7,0,237.292,237.292,75.62484,-169.45722,1014.6,-999.0,-999.0,yes,no,no,300234010957630,UPTEMPO,PSC-UPTEMPO,Araon,North
2011-08-25T07:59:31Z,2011,8,0,237.333,237.333,75.62484,-169.45722,1014.5,-999.0,-999.0,yes,no,no,300234010957630,UPTEMPO,PSC-UPTEMPO,Araon,North
2011-08-25T09:00:00Z,2011,9,0,237.375,237.375,75.60756,-169.53516,1014.5,-999.0,-999.0,yes,no,no,300234010957630,UPTEMPO,PSC-UPTEMPO,Araon,North
2011-08-25T10:00:28Z,2011,10,0,237.417,237.417,75.60756,-169.53516,1014.3,-999.0,-999.0,yes,no,no,300234010957630,UPTEMPO,PSC-UPTEMPO,Araon,North
2011-08-25T10:59:31Z,2011,11,0,237.458,237.458,75.60756,-169.53516,1014.6,-999.0,-999.0,yes,no,no,300234010957630,UPTEMPO,PSC-UPTEMPO,Araon,North
2011-08-25T12:00:00Z,2011,12,0,237.5,237.5,75.60072,-169.57818,1014.5,-999.0,-999.0,yes,no,no,300234010957630,UPTEMPO,PSC-UPTEMPO,Araon,North
2011-08-25T13:00:28Z,2011,13,0,237.542,237.542,75.60072,-169.57818,1014.5,-999.0,-999.0,yes,no,no,300234010957630,UPTEMPO,PSC-UPTEMPO,Araon,North
2011-08-25T13:59:31Z,2011,14,0,237.583,237.583,75.60072,-169.57818,1014.5,-999.0,-999.0,yes,no,no,300234010957630,UPTEMPO,PSC-UPTEMPO,Araon,North
2011-08-25T15:00:00Z,2011,15,0,237.625,237.625,75.59316,-169.62174,1014.4,-999.0,-999.0,yes,no,no,300234010957630,UPTEMPO,PSC-UPTEMPO,Araon,North
2011-08-25T16:00:28Z,2011,16,0,237.667,237.667,75.59316,-169.62174,1014.4,-999.0,-999.0,yes,no,no,300234010957630,UPTEMPO,PSC-UPTEMPO,Araon,North
2011-08-25T16:59:31Z,2011,17,0,237.708,237.708,75.59316,-169.62174,1014.1,-999.0,-999.0,yes,no,no,300234010957630,UPTEMPO,PSC-UPTEMPO,Araon,North
2011-08-25T18:00:00Z,2011,18,0,237.75,237.75,75.58506,-169.66836,1014.0,-999.0,-999.0,yes,no,no,300234010957630,UPTEMPO,PSC-UPTEMPO,Araon,North
2011-08-25T19:00:28Z,2011,19,0,237.792,237.792,75.58506,-169.66836,1013.9,-999.0,-999.0,yes,no,no,300234010957630,UPTEMPO,PSC-UPTEMPO,Araon,North
2011-08-25T19:59:31Z,2011,20,0,237.833,237.833,75.58506,-169.66836,1013.6,-999.0,-999.0,yes,no,no,300234010957630,UPTEMPO,PSC-UPTEMPO,Araon,North
2011-08-25T21:00:00Z,2011,21,0,237.875,237.875,75.57858,-169.71714,1013.6,-999.0,-999.0,yes,no,no,300234010957630,UPTEMPO,PSC-UPTEMPO,Araon,North
2011-08-25T22:00:28Z,2011,22,0,237.917,237.917,75.57858,-169.71714,1013.6,-999.0,-999.0,yes,no,no,300234010957630,UPTEMPO,PSC-UPTEMPO,Araon,North
2011-08-25T22:59:31Z,2011,23,0,237.958,237.958,75.57858,-169.71714,1013.5,-999.0,-999.0,yes,no,no,300234010957630,UPTEMPO,PSC-UPTEMPO,Araon,North
2011-08-26T00:00:00Z,2011,0,0,238.0,238.0,75.57354,-169.76088,1013.3,-999.0,-999.0,yes,no,no,300234010957630,UPTEMPO,PSC-UPTEMPO,Araon,North
2011-08-26T01:00:28Z,2011,1,0,238.042,238.042,75.57354,-169.76088,1013.1,-999.0,-999.0,yes,no,no,300234010957630,UPTEMPO,PSC-UPTEMPO,Araon,North
2011-08-26T01:59:31Z,2011,2,0,238.083,238.083,75.57354,-169.76088,1012.9,-999.0,-999.0,yes,no,no,300234010957630,UPTEMPO,PSC-UPTEMPO,Araon,North
2011-08-26T03:00:00Z,2011,3,0,238.125,238.125,75.56904,-169.80498,1012.8,-999.0,-999.0,yes,no,no,300234010957630,UPTEMPO,PSC-UPTEMPO,Araon,North
2011-08-26T04:00:28Z,2011,4,0,238.167,238.167,75.56904,-169.80498,1012.6,-999.0,-999.0,yes,no,no,300234010957630,UPTEMPO,PSC-UPTEMPO,Araon,North
2011-08-26T04:59:31Z,2011,5,0,238.208,238.208,75.56904,-169.80498,1012.6,-999.0,-999.0,yes,no,no,300234010957630,UPTEMPO,PSC-UPTEMPO,Araon,North
2011-08-26T06:00:00Z,2011,6,0,238.25,238.25,75.56526,-169.84944,1012.5,-999.0,-999.0,yes,no,no,300234010957630,UPTEMPO,PSC-UPTEMPO,Araon,North
2011-08-26T07:00:28Z,2011,7,0,238.292,238.292,75.56526,-169.84944,1012.5,-999.0,-999.0,yes,no,no,300234010957630,UPTEMPO,PSC-UPTEMPO,Araon,North
2011-08-26T07:59:31Z,2011,8,0,238.333,238.333,75.56526,-169.84944,1012.5,-999.0,-999.0,yes,no,no,300234010957630,UPTEMPO,PSC-UPTEMPO,Araon,North
2011-08-26T09:00:00Z,2011,9,0,238.375,238.375,75.56166,-169.8921,1012.6,-999.0,-999.0,yes,no,no,300234010957630,UPTEMPO,PSC-UPTEMPO,Araon,North
2011-08-26T10:00:28Z,2011,10,0,238.417,238.417,75.56166,-169.8921,1012.9,-999.0,-999.0,yes,no,no,300234010957630,UPTEMPO,PSC-UPTEMPO,Araon,North
2011-08-26T10:59:31Z,2011,11,0,238.458,238.458,75.56166,-169.8921,1012.9,-999.0,-999.0,yes,no,no,300234010957630,UPTEMPO,PSC-UPTEMPO,Araon,North
2011-08-26T12:00:00Z,2011,12,0,238.5,238.5,75.55734,-169.9254,1012.8,-999.0,-999.0,yes,no,no,300234010957630,UPTEMPO,PSC-UPTEMPO,Araon,North
2011-08-26T13:00:28Z,2011,13,0,238.542,238.542,75.55734,-169.9254,1012.9,-999.0,-999.0,yes,no,no,300234010957630,UPTEMPO,PSC-UPTEMPO,Araon,North
2011-08-26T13:59:31Z,2011,14,0,238.583,238.583,75.55734,-169.9254,1012.8,-999.0,-999.0,yes,no,no,300234010957630,UPTEMPO,PSC-UPTEMPO,Araon,North
2011-08-26T15:00:00Z,2011,15,0,238.625,238.625,75.55266,-169.9596,1012.7,-999.0,-999.0,yes,no,no,300234010957630,UPTEMPO,PSC-UPTEMPO,Araon,North
2011-08-26T16:00:28Z,2011,16,0,238.667,238.667,75.55266,-169.9596,1012.7,-999.0,-999.0,yes,no,no,300234010957630,UPTEMPO,PSC-UPTEMPO,Araon,North
2011-08-26T16:59:31Z,2011,17,0,238.708,238.708,75.55266,-169.9596,1012.6,-999.0,-999.0,yes,no,no,300234010957630,UPTEMPO,PSC-UPTEMPO,Araon,North
2011-08-26T18:00:00Z,2011,18,0,238.75,238.75,75.54906,-170.01162,1012.5,-999.0,-999.0,yes,no,no,300234010957630,UPTEMPO,PSC-UPTEMPO,Araon,North
2011-08-26T19:00:28Z,2011,19,0,238.792,238.792,75.54906,-170.01162,1012.6,-999.0,-999.0,yes,no,no,300234010957630,UPTEMPO,PSC-UPTEMPO,Araon,North
2011-08-26T19:59:31Z,2011,20,0,238.833,238.833,75.54906,-170.01162,1012.7,-999.0,-999.0,yes,no,no,300234010957630,UPTEMPO,PSC-UPTEMPO,Araon,North
2011-08-26T21:00:00Z,2011,21,0,238.875,238.875,75.54222,-170.05644,1012.9,-999.0,-999.0,yes,no,no,300234010957630,UPTEMPO,PSC-UPTEMPO,Araon,North
2011-08-26T22:00:28Z,2011,22,0,238.917,238.917,75.54222,-170.05644,1012.8,-999.0,-999.0,yes,no,no,300234010957630,UPTEMPO,PSC-UPTEMPO,Araon,North
2011-08-26T22:59:31Z,2011,23,0,238.958,238.958,75.54222,-170.05644,1012.8,-999.0,-999.0,yes,no,no,300234010957630,UPTEMPO,PSC-UPTEMPO,Araon,North
2011-08-27T00:00:00Z,2011,0,0,239.0,239.0,75.53628,-170.0829,1012.9,-999.0,-999.0,yes,no,no,300234010957630,UPTEMPO,PSC-UPTEMPO,Araon,North
2011-08-27T01:00:28Z,2011,1,0,239.042,239.042,75.53628,-170.0829,1012.9,-999.0,-999.0,yes,no,no,300234010957630,UPTEMPO,PSC-UPTEMPO,Araon,North
2011-08-27T01:59:31Z,2011,2,0,239.083,239.083,75.53628,-170.0829,1012.6,-999.0,-999.0,yes,no,no,300234010957630,UPTEMPO,PSC-UPTEMPO,Araon,North
2011-08-27T03:00:00Z,2011,3,0,239.125,239.125,75.52998,-170.10234,1012.4,-999.0,-999.0,yes,no,no,300234010957630,UPTEMPO,PSC-UPTEMPO,Araon,North
2011-08-27T04:00:28Z,2011,4,0,239.167,239.167,75.52998,-170.10234,1012.5,-999.0,-999.0,yes,no,no,300234010957630,UPTEMPO,PSC-UPTEMPO,Araon,North
2011-08-27T04:59:31Z,2011,5,0,239.208,239.208,75.52998,-170.10234,1012.4,-999.0,-999.0,yes,no,no,300234010957630,UPTEMPO,PSC-UPTEMPO,Araon,North
2011-08-27T06:00:00Z,2011,6,0,239.25,239.25,75.52512,-170.12862,1012.5,-999.0,-999.0,yes,no,no,300234010957630,UPTEMPO,PSC-UPTEMPO,Araon,North
2011-08-27T07:00:28Z,2011,7,0,239.292,239.292,75.52512,-170.12862,1012.8,-999.0,-999.0,yes,no,no,300234010957630,UPTEMPO,PSC-UPTEMPO,Araon,North
2011-08-27T07:59:31Z,2011,8,0,239.333,239.333,75.52512,-170.12862,1013.0,-999.0,-999.0,yes,no,no,300234010957630,UPTEMPO,PSC-UPTEMPO,Araon,North
2011-08-27T09:00:00Z,2011,9,0,239.375,239.375,75.52134,-170.1549,1013.2,-999.0,-999.0,yes,no,no,300234010957630,UPTEMPO,PSC-UPTEMPO,Araon,North
2011-08-27T10:00:28Z,2011,10,0,239.417,239.417,75.52134,-170.1549,1013.2,-999.0,-999.0,yes,no,no,300234010957630,UPTEMPO,PSC-UPTEMPO,Araon,North
2011-08-27T10:59:31Z,2011,11,0,239.458,239.458,75.52134,-170.1549,1013.3,-999.0,-999.0,yes,no,no,300234010957630,UPTEMPO,PSC-UPTEMPO,Araon,North
2011-08-27T12:00:00Z,2011,12,0,239.5,239.5,75.51756,-170.17884,1013.2,-999.0,-999.0,yes,no,no,300234010957630,UPTEMPO,PSC-UPTEMPO,Araon,North
2011-08-27T13:00:28Z,2011,13,0,239.542,239.542,75.51756,-170.17884,1013.3,-999.0,-999.0,yes,no,no,300234010957630,UPTEMPO,PSC-UPTEMPO,Araon,North
2011-08-27T13:59:31Z,2011,14,0,239.583,239.583,75.51756,-170.17884,1013.2,-999.0,-999.0,yes,no,no,300234010957630,UPTEMPO,PSC-UPTEMPO,Araon,North
2011-08-27T15:00:00Z,2011,15,0,239.625,239.625,75.51306,-170.20206,1013.1,-999.0,-999.0,yes,no,no,300234010957630,UPTEMPO,PSC-UPTEMPO,Araon,North
2011-08-27T16:00:28Z,2011,16,0,239.667,239.667,75.51306,-170.20206,1013.3,-999.0,-999.0,yes,no,no,300234010957630,UPTEMPO,PSC-UPTEMPO,Araon,North
2011-08-27T16:59:31Z,2011,17,0,239.708,239.708,75.51306,-170.20206,1013.3,-999.0,-999.0,yes,no,no,300234010957630,UPTEMPO,PSC-UPTEMPO,Araon,North
2011-08-27T18:00:00Z,2011,18,0,239.75,239.75,75.50892,-170.22906,1013.6,-999.0,-999.0,yes,no,no,300234010957630,UPTEMPO,PSC-UPTEMPO,Araon,North
2011-08-27T19:00:28Z,2011,19,0,239.792,239.792,75.50892,-170.22906,1013.8,-999.0,-999.0,yes,no,no,300234010957630,UPTEMPO,PSC-UPTEMPO,Araon,North
2011-08-27T19:59:31Z,2011,20,0,239.833,239.833,75.50892,-170.22906,1013.9,-999.0,-999.0,yes,no,no,300234010957630,UPTEMPO,PSC-UPTEMPO,Araon,North
2011-08-27T21:00:00Z,2011,21,0,239.875,239.875,75.50658,-170.25552,1014.3,-999.0,-999.0,yes,no,no,300234010957630,UPTEMPO,PSC-UPTEMPO,Araon,North
2011-08-27T22:00:28Z,2011,22,0,239.917,239.917,75.50658,-170.25552,1014.4,-999.0,-999.0,yes,no,no,300234010957630,UPTEMPO,PSC-UPTEMPO,Araon,North
2011-08-27T22:59:31Z,2011,23,0,239.958,239.958,75.50658,-170.25552,1014.6,-999.0,-999.0,yes,no,no,300234010957630,UPTEMPO,PSC-UPTEMPO,Araon,North
2011-08-28T00:00:00Z,2011,0,0,240.0,240.0,75.50496,-170.28216,1014.7,-999.0,-999.0,yes,no,no,300234010957630,UPTEMPO,PSC-UPTEMPO,Araon,North
2011-08-28T01:00:28Z,2011,1,0,240.042,240.042,75.50496,-170.28216,1014.8,-999.0,-999.0,yes,no,no,300234010957630,UPTEMPO,PSC-UPTEMPO,Araon,North
2011-08-28T01:59:31Z,2011,2,0,240.083,240.083,75.50496,-170.28216,1014.9,-999.0,-999.0,yes,no,no,300234010957630,UPTEMPO,PSC-UPTEMPO,Araon,North
2011-08-28T03:00:00Z,2011,3,0,240.125,240.125,75.50226,-170.30826,1014.9,-999.0,-999.0,yes,no,no,300234010957630,UPTEMPO,PSC-UPTEMPO,Araon,North
2011-08-28T04:00:28Z,2011,4,0,240.167,240.167,75.50226,-170.30826,1015.0,-999.0,-999.0,yes,no,no,300234010957630,UPTEMPO,PSC-UPTEMPO,Araon,North
2011-08-28T04:59:31Z,2011,5,0,240.208,240.208,75.50226,-170.30826,1015.1,-999.0,-999.0,yes,no,no,300234010957630,UPTEMPO,PSC-UPTEMPO,Araon,North
2011-08-28T06:00:00Z,2011,6,0,240.25,240.25,75.50028,-170.3385,1015.3,-999.0,-999.0,yes,no,no,300234010957630,UPTEMPO,PSC-UPTEMPO,Araon,North
2011-08-28T07:00:28Z,2011,7,0,240.292,240.292,75.50028,-170.3385,1015.3,-999.0,-999.0,yes,no,no,300234010957630,UPTEMPO,PSC-UPTEMPO,Araon,North
2011-08-28T07:59:31Z,2011,8,0,240.333,240.333,75.50028,-170.3385,1015.5,-999.0,-999.0,yes,no,no,300234010957630,UPTEMPO,PSC-UPTEMPO,Araon,North
2011-08-28T09:00:00Z,2011,9,0,240.375,240.375,75.50028,-170.36748,1015.4,-999.0,-999.0,yes,no,no,300234010957630,UPTEMPO,PSC-UPTEMPO,Araon,North
2011-08-28T10:00:28Z,2011,10,0,240.417,240.417,75.50028,-170.36748,1015.8,-999.0,-999.0,yes,no,no,300234010957630,UPTEMPO,PSC-UPTEMPO,Araon,North
2011-08-28T10:59:31Z,2011,11,0,240.458,240.458,75.50028,-170.36748,1015.6,-999.0,-999.0,yes,no,no,300234010957630,UPTEMPO,PSC-UPTEMPO,Araon,North
2011-08-28T12:00:00Z,2011,12,0,240.5,240.5,75.501,-170.40276,1015.5,-999.0,-999.0,yes,no,no,300234010957630,UPTEMPO,PSC-UPTEMPO,Araon,North
2011-08-28T13:00:28Z,2011,13,0,240.542,240.542,75.501,-170.40276,1015.3,-999.0,-999.0,yes,no,no,300234010957630,UPTEMPO,PSC-UPTEMPO,Araon,North
2011-08-28T13:59:31Z,2011,14,0,240.583,240.583,75.501,-170.40276,1015.1,-999.0,-999.0,yes,no,no,300234010957630,UPTEMPO,PSC-UPTEMPO,Araon,North
2011-08-28T15:00:00Z,2011,15,0,240.625,240.625,75.50226,-170.44362,1014.7,-999.0,-999.0,yes,no,no,300234010957630,UPTEMPO,PSC-UPTEMPO,Araon,North
2011-08-28T16:00:28Z,2011,16,0,240.667,240.667,75.50226,-170.44362,1014.4,-999.0,-999.0,yes,no,no,300234010957630,UPTEMPO,PSC-UPTEMPO,Araon,North
2011-08-28T16:59:31Z,2011,17,0,240.708,240.708,75.50226,-170.44362,1014.2,-999.0,-999.0,yes,no,no,300234010957630,UPTEMPO,PSC-UPTEMPO,Araon,North
2011-08-28T18:00:00Z,2011,18,0,240.75,240.75,75.50424,-170.48934,1013.5,-999.0,-999.0,yes,no,no,300234010957630,UPTEMPO,PSC-UPTEMPO,Araon,North
2011-08-28T19:00:28Z,2011,19,0,240.792,240.792,75.50424,-170.48934,1013.5,-999.0,-999.0,yes,no,no,300234010957630,UPTEMPO,PSC-UPTEMPO,Araon,North
2011-08-28T19:59:31Z,2011,20,0,240.833,240.833,75.50424,-170.48934,1012.7,-999.0,-999.0,yes,no,no,300234010957630,UPTEMPO,PSC-UPTEMPO,Araon,North
2011-08-28T21:00:00Z,2011,21,0,240.875,240.875,75.5082,-170.54208,1012.4,-999.0,-999.0,yes,no,no,300234010957630,UPTEMPO,PSC-UPTEMPO,Araon,North
2011-08-28T22:00:28Z,2011,22,0,240.917,240.917,75.5082,-170.54208,1012.0,-999.0,-999.0,yes,no,no,300234010957630,UPTEMPO,PSC-UPTEMPO,Araon,North
2011-08-28T22:59:31Z,2011,23,0,240.958,240.958,75.5082,-170.54208,1011.3,-999.0,-999.0,yes,no,no,300234010957630,UPTEMPO,PSC-UPTEMPO,Araon,North
2011-08-29T00:00:00Z,2011,0,0,241.0,241.0,75.51504,-170.5788,1010.6,-999.0,-999.0,yes,no,no,300234010957630,UPTEMPO,PSC-UPTEMPO,Araon,North
2011-08-29T01:00:28Z,2011,1,0,241.042,241.042,75.51504,-170.5788,1010.2,-999.0,-999.0,yes,no,no,300234010957630,UPTEMPO,PSC-UPTEMPO,Araon,North
2011-08-29T01:59:31Z,2011,2,0,241.083,241.083,75.51504,-170.5788,1009.6,-999.0,-999.0,yes,no,no,300234010957630,UPTEMPO,PSC-UPTEMPO,Araon,North
2011-08-29T03:00:00Z,2011,3,0,241.125,241.125,75.52098,-170.59626,1009.2,-999.0,-999.0,yes,no,no,300234010957630,UPTEMPO,PSC-UPTEMPO,Araon,North
2011-08-29T04:00:28Z,2011,4,0,241.167,241.167,75.52098,-170.59626,1009.0,-999.0,-999.0,yes,no,no,300234010957630,UPTEMPO,PSC-UPTEMPO,Araon,North
2011-08-29T04:59:31Z,2011,5,0,241.208,241.208,75.52098,-170.59626,1009.1,-999.0,-999.0,yes,no,no,300234010957630,UPTEMPO,PSC-UPTEMPO,Araon,North
2011-08-29T06:00:00Z,2011,6,0,241.25,241.25,75.52404,-170.60544,1009.1,-999.0,-999.0,yes,no,no,300234010957630,UPTEMPO,PSC-UPTEMPO,Araon,North
2011-08-29T07:00:28Z,2011,7,0,241.292,241.292,75.52404,-170.60544,1009.6,-999.0,-999.0,yes,no,no,300234010957630,UPTEMPO,PSC-UPTEMPO,Araon,North
2011-08-29T07:59:31Z,2011,8,0,241.333,241.333,75.52404,-170.60544,1010.1,-999.0,-999.0,yes,no,no,300234010957630,UPTEMPO,PSC-UPTEMPO,Araon,North
2011-08-29T09:00:00Z,2011,9,0,241.375,241.375,75.52494,-170.61948,1010.5,-999.0,-999.0,yes,no,no,300234010957630,UPTEMPO,PSC-UPTEMPO,Araon,North
2011-08-29T10:00:28Z,2011,10,0,241.417,241.417,75.52494,-170.61948,1010.5,-999.0,-999.0,yes,no,no,300234010957630,UPTEMPO,PSC-UPTEMPO,Araon,North
2011-08-29T10:59:31Z,2011,11,0,241.458,241.458,75.52494,-170.61948,1010.4,-999.0,-999.0,yes,no,no,300234010957630,UPTEMPO,PSC-UPTEMPO,Araon,North
2011-08-29T12:00:00Z,2011,12,0,241.5,241.5,75.52872,-170.64576,1010.4,-999.0,-999.0,yes,no,no,300234010957630,UPTEMPO,PSC-UPTEMPO,Araon,North
2011-08-29T13:00:28Z,2011,13,0,241.542,241.542,75.52872,-170.64576,1010.2,-999.0,-999.0,yes,no,no,300234010957630,UPTEMPO,PSC-UPTEMPO,Araon,North
2011-08-29T13:59:31Z,2011,14,0,241.583,241.583,75.52872,-170.64576,1009.9,-999.0,-999.0,yes,no,no,300234010957630,UPTEMPO,PSC-UPTEMPO,Araon,North
2011-08-29T15:00:00Z,2011,15,0,241.625,241.625,75.53466,-170.67132,1010.0,-999.0,-999.0,yes,no,no,300234010957630,UPTEMPO,PSC-UPTEMPO,Araon,North
2011-08-29T16:00:28Z,2011,16,0,241.667,241.667,75.53466,-170.67132,1010.1,-999.0,-999.0,yes,no,no,300234010957630,UPTEMPO,PSC-UPTEMPO,Araon,North
2011-08-29T16:59:31Z,2011,17,0,241.708,241.708,75.53466,-170.67132,1009.9,-999.0,-999.0,yes,no,no,300234010957630,UPTEMPO,PSC-UPTEMPO,Araon,North
2011-08-29T18:00:00Z,2011,18,0,241.75,241.75,75.5388,-170.67762,1009.9,-999.0,-999.0,yes,no,no,300234010957630,UPTEMPO,PSC-UPTEMPO,Araon,North